(735) Marghanna
ephemeris date magn radius delta ra dec elong phase
Today4 Sep 202616.13.386 AU4.323 AU10h16m+24°35'19.0°5.6°
Opposition7 Mar 202715.23.595 AU2.644 AU11h43m+22°59'160.6°5.3°
(735) Marghanna - 2026-09-04
astro.vanbuitenen.nl


 
-1 year
-1 month
-1 day
Now
+1 day
+1 month
+1 year

The interactive orbit chart above shows the body's path through the solar system and its position at the given date. Green and blue lines are shown perpendicular to the ecliptic plane: Green if the path is above the ecliptic plane, blue if it is below. (Left-click and drag to rotate the view; Right-click and drag to move the view; Use scroll wheel to zoom in our out.)

The orbital elements of Marghanna are:

            e (Eccentricity)                : 0.3211861
            a (Semimajor axis)              : 2.7320296
            i (Inclination)                 : 16.85380
            Ω (Longitude of ascending node) : 42.81961
            ω (Argument of perihelion)      : 310.19677
            M (Mean anomaly)                : 106.86857
            Epoch                           : 2026 Jun 09

            L (Longitude of perihelion)     : -5.73939
            B (Latitude of perihelion)      : -12.79470
            P (Orbital period in years)     : 4.52            
        

The light curve chart below shows the estimated development of the minor planet's magnitude.


The all-sky chart below shows the path of the minor planet over the same period as the light curve. The current position is marked yellow.





The following chart shows the path of the minor planet in the next few days. The field of view is optimized for (~10x50) binoculars and finderscopes.




Ephemerides:
Date       Time       RA (2000)    DEC (2000)    delta   radius  elong  phase   PA    magn
2026-09-04 00:00 UT   10 16 32.0   +24 35 07     4.323    3.386   19.0    5.6   333   16.1 
2026-09-04 02:43 UT   10 16 41.0   +24 34 22     4.323    3.386   19.1    5.6   333   16.1 
2026-09-05 00:00 UT   10 17 51.6   +24 28 28     4.321    3.387   19.5    5.7   332   16.2 
2026-09-06 00:00 UT   10 19 11.0   +24 21 49     4.319    3.389   20.0    5.8   331   16.2 
2026-09-07 00:00 UT   10 20 30.1   +24 15 11     4.317    3.391   20.5    6.0   330   16.2 
2026-09-08 00:00 UT   10 21 49.0   +24 08 34     4.314    3.393   21.0    6.1   329   16.2 
2026-09-09 00:00 UT   10 23 07.7   +24 01 59     4.312    3.394   21.5    6.2   328   16.2 
2026-09-10 00:00 UT   10 24 26.2   +23 55 25     4.309    3.396   22.0    6.4   327   16.2 
2026-09-11 00:00 UT   10 25 44.4   +23 48 52     4.306    3.398   22.5    6.5   326   16.2 
2026-09-12 00:00 UT   10 27 02.4   +23 42 20     4.303    3.400   23.0    6.7   325   16.2 
2026-09-13 00:00 UT   10 28 20.2   +23 35 50     4.300    3.401   23.6    6.8   324   16.2 
2026-09-14 00:00 UT   10 29 37.7   +23 29 21     4.296    3.403   24.1    6.9   323   16.2 
2026-09-15 00:00 UT   10 30 54.9   +23 22 54     4.293    3.405   24.7    7.1   322   16.2 
2026-09-16 00:00 UT   10 32 12.0   +23 16 28     4.289    3.407   25.2    7.2   322   16.2 
2026-09-17 00:00 UT   10 33 28.7   +23 10 04     4.285    3.408   25.8    7.4   321   16.2 
2026-09-18 00:00 UT   10 34 45.2   +23 03 41     4.281    3.410   26.4    7.5   320   16.2 
2026-09-19 00:00 UT   10 36 01.5   +22 57 20     4.277    3.412   26.9    7.7   320   16.2 
2026-09-20 00:00 UT   10 37 17.5   +22 51 01     4.272    3.413   27.5    7.8   319   16.2 
2026-09-21 00:00 UT   10 38 33.2   +22 44 44     4.268    3.415   28.1    8.0   318   16.2 
2026-09-22 00:00 UT   10 39 48.6   +22 38 29     4.263    3.417   28.7    8.1   318   16.3 
2026-09-23 00:00 UT   10 41 03.8   +22 32 15     4.258    3.418   29.3    8.3   317   16.3 
2026-09-24 00:00 UT   10 42 18.7   +22 26 03     4.253    3.420   29.9    8.4   317   16.3 
2026-09-25 00:00 UT   10 43 33.4   +22 19 54     4.248    3.422   30.5    8.5   316   16.3 
2026-09-26 00:00 UT   10 44 47.7   +22 13 46     4.243    3.423   31.1    8.7   316   16.3 
2026-09-27 00:00 UT   10 46 01.8   +22 07 41     4.237    3.425   31.7    8.8   315   16.3 
2026-09-28 00:00 UT   10 47 15.6   +22 01 37     4.232    3.427   32.3    9.0   315   16.3 
2026-09-29 00:00 UT   10 48 29.1   +21 55 36     4.226    3.428   32.9    9.1   314   16.3 
2026-09-30 00:00 UT   10 49 42.3   +21 49 37     4.220    3.430   33.5    9.3   314   16.3 
2026-10-01 00:00 UT   10 50 55.3   +21 43 40     4.214    3.432   34.2    9.4   313   16.3 


    Terminology:
            
    delta:  distance between minor planet and earth in AU
    radius: distance between minor planet and sun in AU
    magn:   magnitude (brightness) estimate    
    ra:     right ascension in hours (24h = 360deg)
    dec:    declination in degrees
    elong:  elongation in degrees (angle sun-earth-minor planet)    
    phase:  phase angle in degrees (angle sun-minor planet-earth)        
    AU:     Astronomical Unit (mean distance between earth and sun: 149597870.7 km
    

Orbital elements provided by the MPC (Minor Planet Center).
Calculations by a modified version of AAPlus, a C# implementation of the AA+ project by PJ Naughter from the algorithms presented in the book "Astronomical Algorithms" by Jean Meeus.
NGC2000 dso catalog and star labels from VizieR as provided by the Strasbourg astronomical Data Center.
Tycho2 catalog from the ESO archive.